Vertical_Velocity
-0 -1 -1 -0 -0 -0 -0 -0 -1 0 0 1 0 -0 0 1 0 1 0 0 -1 -1 -0 -0 -1 1 0 3 2 2 -4 -4 -5 1 0 -2 0 -1 -2 -5 -3 2 -1 -2 -3
-1 -1 -1 -0 0 0 -2 -1 -1 -0 -0 0 0 0 -0 0 -1 0 2 0 1 -1 -1 1 -1 -2 0 -0 -2 2 -5 0 -0 0 -1 2 -2 -3 -1 -4 2 2 -2 -2 -4
-1 -1 -1 -1 -1 -1 -1 -1 -0 -1 -1 1 0 -0 1 1 0 1 1 2 1 -2 -1 -2 -1 2 -2 -1 -1 -5 -5 -4 -2 2 -2 1 0 -3 1 -3 4 7 -0 -0 -1
-1 0 -1 -1 -2 -1 -1 0 -0 -0 -0 -0 2 1 0 2 0 0 1 2 0 -1 -1 -1 2 -3 -1 1 1 0 -5 -1 -2 -4 -1 -0 -3 -1 -0 0 2 4 3 1 2
-1 -1 0 -1 -1 0 -0 0 -0 -0 -0 -0 0 0 1 1 -4 -2 1 -1 -0 -1 0 0 -3 -1 1 2 1 -2 0 -9 -2 -8 1 -2 -3 1 1 4 1 4 7 4 6
-1 -2 -1 0 -0 0 -0 -0 -1 -0 -1 0 1 0 -2 1 3 2 2 2 -1 -1 -2 -2 -1 0 1 0 -0 2 -1 -3 -3 -6 -0 -2 -1 1 4 1 -3 -2 -0 1 -3
-1 -1 -3 -1 -0 1 -0 -1 -1 -1 1 1 2 -2 -3 4 7 3 1 -1 1 2 3 -2 1 1 3 -1 3 3 -2 -2 -5 -6 -2 1 -2 2 1 -1 4 -3 -9 -1 4
-2 -1 -2 -4 -0 0 -1 -2 1 0 1 1 -0 -2 -1 3 -1 -4 -3 -1 -1 -1 -0 1 0 3 2 4 5 0 2 -2 -4 -2 -0 -1 -2 -3 4 -1 1 -1 -1 -2 2
-2 -2 -2 -2 -1 -1 -1 0 1 -2 -0 0 0 -1 2 4 -2 3 0 -0 -0 -1 -2 -2 4 2 2 -0 6 1 -2 -0 1 -8 -5 -6 -0 -4 2 0 1 -1 0 -2 0
-1 -2 -2 -1 -1 -2 -3 -1 -1 0 2 2 2 -3 0 4 -0 4 1 4 1 2 -1 -2 1 2 1 -3 3 -1 -1 0 -1 -2 -5 -7 -1 2 -2 6 0 -0 1 4 -2
-1 -2 -1 2 -1 -2 -2 2 3 7 2 2 2 -1 2 0 -1 0 -0 1 0 1 -1 -2 -2 6 5 0 -1 -4 2 3 0 5 -11 -4 -4 4 1 -6 3 6 -6 2 -2
-1 -2 1 2 -1 2 1 3 2 -0 -5 2 -0 1 1 -0 -3 1 2 -0 2 7 -2 -0 4 9 1 2 -2 -4 4 -1 -0 5 6 -3 -10 -2 -0 -3 -3 -3 4 -3 -2
-1 -0 -0 1 0 1 -1 0 3 0 -4 8 -1 -2 1 0 0 -3 -0 1 -1 -1 1 -2 14 -2 1 2 -0 -0 5 -4 2 -2 2 3 -5 -9 -2 -1 -5 -0 1 -0 -2
-0 0 -1 1 1 -1 -0 2 2 -2 0 -1 -3 1 -0 -1 -5 1 -0 -0 3 3 -1 -2 10 -1 1 2 2 -1 1 -0 0 3 -0 -6 -5 -4 4 -1 -3 -1 -0 3 7
-0 -0 -1 1 1 -1 0 0 0 1 2 1 -2 1 -1 -1 2 1 -1 0 0 -2 -2 15 6 2 -4 13 -0 7 0 -2 -4 -3 2 -3 -5 -6 -3 1 4 -1 -1 -2 14
-1 0 -1 1 1 -2 1 1 1 -0 1 -1 -2 -3 -2 -0 -0 -2 -0 -1 1 -1 0 3 -3 -3 6 -1 -3 5 0 -1 -2 0 -2 -3 -7 -4 -1 -4 -3 -2 -1 -2 5
-1 -0 -1 1 1 -1 1 0 1 1 -2 -7 -3 -3 -3 -3 -0 1 2 1 -0 -0 3 -2 2 4 1 1 -0 3 3 -2 -4 -6 -4 7 -1 -5 -3 -2 -4 7 0 -6 -1
-1 -0 0 2 -1 0 1 1 2 -1 -1 1 -0 2 0 0 -2 -1 0 4 1 0 1 -0 0 6 11 11 7 -1 -2 -3 -3 -2 0 1 -2 -10 -4 -3 -7 2 0 -2 -5
-0 -0 2 -1 -0 -1 0 1 -2 2 1 3 -2 1 1 -2 -1 -1 -1 -1 2 -1 -1 2 9 1 1 3 -1 -1 -1 7 -1 -2 -1 -0 -1 -8 -8 -0 -11 -1 3 -4 -3
-1 1 -1 2 0 1 0 3 2 -0 -1 0 -3 2 3 -2 0 2 2 -3 -2 1 -1 2 3 -1 -0 1 4 1 2 -1 -3 -4 -2 -4 -2 1 -5 -5 2 -5 -10 2 3
-0 2 -1 1 1 1 2 3 -1 -6 2 1 -1 -3 -0 0 3 1 3 2 -2 -1 3 3 3 -2 5 4 10 -2 0 2 -0 -0 -2 -4 -4 6 3 -1 1 -11 -1 8 10
-1 2 0 -1 -0 0 0 -4 2 -3 2 -1 -0 -2 0 -1 -2 2 -2 3 1 0 -3 5 1 2 3 5 4 0 2 -5 -0 -3 -12 -9 -4 7 4 -2 -3 -2 -4 8 -5
-1 1 2 0 1 0 0 -1 1 -3 2 -2 -2 -1 -1 2 -1 -6 -1 6 -1 -0 -1 2 -1 6 3 0 -1 2 -1 -0 1 0 3 0 -2 -2 -1 -0 -8 -11 1 -3 -1
1 1 -2 0 0 -1 3 1 -1 -1 -5 -2 6 1 0 1 2 1 -2 -4 -2 -1 -2 0 -2 -4 -1 7 2 3 -0 -2 -4 4 -2 -5 -7 1 -0 4 -1 -8 2 1 -6
2 -1 -4 -2 -0 -1 -3 1 0 -4 -8 2 -2 0 3 6 1 0 3 0 -2 -1 -2 -0 -0 -1 0 5 2 4 2 -8 -6 -4 -5 0 2 -3 -4 1 -5 -2 5 -2 -3
0 0 -0 -1 2 -1 2 -2 2 4 0 -2 3 -2 1 6 0 8 -5 -0 3 2 3 2 2 0 -2 -1 -1 -3 0 0 -12 1 8 -2 -5 -6 -2 -6 -14 -9 -5 -0 -1
-1 1 -1 1 1 -2 1 0 -0 3 1 1 -1 4 2 1 4 -1 -4 -1 4 -1 3 -1 -0 -2 -3 -0 -4 -6 -3 2 -6 13 7 -3 -1 -6 -3 -1 -3 -6 -5 -6 3
Height
5903 5905 5906 5907 5909 5909 5910 5911 5911 5912 5912 5912 5913 5913 5913 5914 5914 5914 5915 5916 5915 5915 5915 5916 5917 5918 5919 5920 5919 5917 5919 5916 5916 5915 5914 5912 5910 5908 5904 5902 5904 5903 5899 5894 5890
5900 5902 5903 5905 5906 5907 5907 5908 5908 5909 5910 5911 5911 5911 5912 5913 5913 5913 5915 5915 5915 5914 5915 5917 5918 5918 5921 5919 5918 5919 5918 5918 5919 5918 5916 5916 5914 5911 5910 5908 5906 5904 5900 5896 5890
5896 5898 5900 5901 5903 5904 5905 5905 5906 5907 5908 5909 5909 5910 5911 5911 5912 5913 5913 5914 5914 5914 5914 5917 5917 5919 5919 5917 5917 5915 5918 5920 5920 5920 5918 5918 5915 5913 5912 5905 5905 5907 5903 5898 5894
5892 5894 5896 5897 5899 5901 5902 5902 5903 5905 5906 5907 5908 5908 5909 5910 5911 5911 5911 5912 5913 5913 5914 5915 5917 5917 5918 5918 5918 5918 5919 5921 5921 5920 5918 5917 5916 5914 5910 5907 5905 5907 5905 5901 5896
5887 5888 5890 5892 5894 5896 5897 5899 5901 5902 5904 5905 5906 5907 5908 5908 5908 5909 5910 5910 5911 5912 5913 5914 5915 5916 5918 5919 5918 5917 5918 5919 5921 5920 5920 5919 5918 5916 5914 5910 5904 5905 5906 5903 5900
5881 5882 5884 5887 5889 5891 5893 5895 5897 5899 5900 5902 5903 5905 5906 5907 5908 5909 5910 5910 5910 5911 5912 5913 5913 5915 5918 5919 5919 5919 5917 5919 5920 5920 5920 5919 5920 5918 5918 5914 5908 5905 5906 5903 5899
5877 5878 5879 5881 5883 5886 5888 5891 5893 5895 5897 5898 5899 5901 5902 5906 5907 5907 5907 5908 5909 5911 5911 5912 5914 5915 5918 5918 5920 5920 5918 5919 5920 5921 5921 5921 5922 5919 5918 5915 5911 5910 5907 5904 5903
5872 5872 5873 5874 5876 5879 5883 5885 5888 5890 5892 5894 5896 5897 5898 5902 5903 5901 5903 5906 5906 5907 5909 5911 5913 5915 5916 5918 5920 5920 5919 5919 5921 5921 5921 5923 5922 5920 5919 5916 5914 5911 5908 5906 5904
5865 5866 5867 5868 5870 5874 5877 5880 5883 5885 5888 5890 5891 5893 5895 5898 5899 5900 5901 5902 5905 5905 5906 5909 5912 5913 5915 5917 5919 5918 5918 5918 5920 5920 5920 5921 5921 5920 5920 5919 5916 5911 5911 5909 5907
5860 5860 5861 5863 5865 5868 5872 5876 5879 5882 5884 5885 5887 5890 5891 5894 5896 5897 5898 5900 5902 5904 5904 5906 5909 5911 5913 5915 5916 5916 5917 5918 5916 5918 5918 5919 5920 5919 5920 5921 5917 5915 5914 5910 5908
5856 5856 5857 5859 5861 5865 5869 5873 5877 5880 5880 5882 5884 5885 5886 5888 5890 5892 5893 5896 5899 5901 5902 5902 5906 5910 5911 5912 5912 5915 5917 5917 5916 5917 5915 5919 5919 5919 5919 5920 5917 5916 5914 5910 5907
5853 5853 5854 5856 5857 5861 5865 5869 5872 5874 5875 5877 5879 5880 5882 5883 5885 5888 5891 5892 5895 5898 5899 5900 5904 5908 5908 5908 5910 5913 5916 5916 5914 5917 5919 5916 5917 5917 5919 5918 5916 5914 5913 5909 5905
5849 5850 5851 5853 5855 5859 5862 5864 5867 5870 5871 5875 5875 5876 5879 5881 5881 5882 5885 5887 5890 5892 5895 5897 5902 5901 5904 5905 5907 5911 5913 5914 5914 5914 5915 5915 5916 5915 5917 5915 5914 5913 5910 5908 5906
5847 5847 5848 5850 5854 5855 5857 5860 5863 5865 5867 5869 5870 5872 5874 5875 5876 5878 5879 5882 5885 5887 5889 5892 5895 5898 5900 5903 5906 5909 5911 5911 5912 5914 5913 5911 5912 5913 5914 5914 5913 5912 5911 5909 5909
5844 5844 5845 5847 5850 5851 5853 5856 5858 5861 5863 5865 5866 5866 5868 5870 5872 5874 5874 5877 5879 5881 5884 5889 5890 5892 5895 5901 5902 5908 5907 5908 5907 5908 5910 5910 5911 5911 5910 5912 5911 5910 5911 5910 5911
5842 5842 5842 5844 5846 5847 5850 5852 5855 5858 5858 5858 5859 5860 5862 5865 5867 5869 5871 5873 5874 5876 5878 5882 5884 5886 5891 5894 5896 5902 5902 5903 5903 5905 5905 5908 5909 5910 5910 5909 5908 5909 5909 5909 5909
5840 5840 5840 5842 5843 5844 5846 5848 5851 5852 5853 5852 5854 5857 5858 5860 5863 5865 5867 5868 5870 5872 5875 5877 5879 5883 5886 5888 5892 5897 5898 5900 5901 5902 5904 5905 5906 5907 5906 5906 5908 5909 5909 5908 5909
5837 5837 5838 5839 5839 5840 5842 5845 5847 5846 5846 5850 5853 5855 5856 5856 5858 5860 5862 5865 5865 5867 5870 5872 5876 5879 5884 5887 5892 5893 5896 5897 5898 5900 5901 5901 5902 5905 5903 5902 5904 5907 5908 5907 5904
5834 5834 5835 5834 5835 5836 5839 5841 5841 5841 5843 5847 5850 5851 5851 5851 5854 5856 5859 5859 5861 5863 5866 5869 5874 5875 5878 5882 5885 5887 5890 5895 5894 5895 5896 5897 5900 5902 5900 5900 5901 5904 5907 5906 5902
5830 5830 5830 5830 5831 5833 5835 5837 5837 5838 5838 5841 5844 5849 5848 5849 5851 5854 5855 5855 5857 5860 5861 5865 5868 5869 5874 5877 5881 5884 5888 5889 5890 5891 5892 5894 5898 5899 5898 5896 5898 5900 5906 5906 5902
5824 5825 5826 5826 5827 5828 5831 5832 5832 5831 5834 5837 5838 5842 5844 5846 5847 5850 5853 5854 5853 5855 5858 5860 5863 5867 5870 5874 5880 5882 5884 5885 5887 5888 5887 5891 5895 5897 5895 5895 5895 5899 5904 5904 5903
5818 5820 5820 5821 5824 5824 5825 5825 5826 5825 5830 5833 5834 5837 5840 5841 5843 5846 5847 5849 5850 5850 5853 5856 5859 5862 5867 5872 5875 5876 5878 5880 5882 5886 5885 5886 5891 5893 5894 5894 5896 5899 5900 5899 5892
5814 5814 5816 5816 5817 5818 5819 5822 5825 5824 5825 5829 5832 5833 5836 5839 5841 5841 5843 5846 5846 5848 5849 5852 5854 5859 5863 5868 5871 5873 5874 5877 5878 5879 5879 5882 5885 5885 5888 5891 5892 5893 5895 5891 5886
5810 5811 5810 5810 5812 5813 5816 5818 5819 5818 5820 5823 5829 5829 5832 5834 5837 5839 5842 5842 5843 5845 5846 5848 5851 5854 5860 5865 5867 5869 5871 5872 5874 5874 5876 5876 5879 5881 5883 5885 5886 5888 5889 5886 5881
5805 5806 5805 5805 5805 5808 5810 5811 5813 5815 5814 5817 5820 5824 5827 5831 5832 5834 5838 5839 5840 5842 5843 5845 5848 5850 5854 5858 5861 5864 5866 5867 5868 5869 5871 5874 5874 5877 5878 5880 5880 5882 5882 5881 5878
5800 5801 5800 5801 5802 5803 5806 5807 5809 5812 5812 5811 5815 5818 5821 5825 5826 5829 5831 5834 5836 5838 5839 5841 5842 5845 5848 5852 5854 5857 5861 5863 5865 5866 5866 5869 5870 5871 5872 5874 5874 5875 5876 5877 5877
5794 5795 5795 5796 5797 5798 5802 5802 5805 5806 5808 5808 5809 5812 5815 5816 5819 5819 5822 5827 5830 5833 5835 5836 5838 5839 5843 5845 5845 5848 5855 5858 5860 5862 5863 5862 5867 5868 5869 5872 5874 5875 5874 5873 5872